This is the latest recevied weather packets stored in our database for station/object G0AMO. If no packets are shown the sender has not sent any weather packets the latest 10 day(s).
| Time | Temp. | Humidity | Pressure | Rain* | Wind** | Luminosity | Snow |
|---|---|---|---|---|---|---|---|
| 1777895404 | 15° C | 83% | 1014.6 hPa | 0 mm | - | 1192 W/m² | - |
| 1777895104 | 14.44° C | 86% | 1015.2 hPa | 0 mm | - | 1186 W/m² | - |
| 1777891504 | 13.89° C | 87% | 1015.2 hPa | 0 mm | - | 1047 W/m² | - |
| 1777890905 | 14.44° C | 86% | 1015.2 hPa | 0 mm | - | 1014 W/m² | - |
| 1777889404 | 14.44° C | 85% | 1015.2 hPa | 0 mm | - | 923 W/m² | - |
| 1777889104 | 14.44° C | 86% | 1015.2 hPa | 0 mm | - | 903 W/m² | - |
| 1777888804 | 13.89° C | 87% | 1015.2 hPa | 0 mm | - | 883 W/m² | - |
| 1777886704 | 14.44° C | 83% | 1015.2 hPa | 0 mm | - | 731 W/m² | - |
| 1777882504 | 12.78° C | 92% | 1013.9 hPa | 0 mm | - | 409 W/m² | - |
| 1777877705 | 11.67° C | 95% | 1013.5 hPa | 0 mm | - | 87 W/m² | - |
| 1777877103 | 11.67° C | 95% | 1014.6 hPa | 0 mm | - | 26 W/m² | - |
| 1777875305 | 11.11° C | 96% | 1013.9 hPa | 0 mm | - | 39 W/m² | - |
| 1777874405 | 11.11° C | 96% | 1013.2 hPa | 0 mm | - | 24 W/m² | - |
| 1777874105 | 11.11° C | 96% | 1013.9 hPa | 0 mm | - | 0 W/m² | - |
| 1777871105 | 10.56° C | 97% | 1013.4 hPa | 0 mm | - | 0 W/m² | - |
| 1777870804 | 10.56° C | 96% | 1013.5 hPa | 0 mm | - | 0 W/m² | - |
| 1777867504 | 11.11° C | 96% | 1013.2 hPa | 0 mm | - | 0 W/m² | - |
| 1777865704 | 10.56° C | 97% | 1013.2 hPa | 0 mm | - | 0 W/m² | - |
| 1777859704 | 10.56° C | 97% | 1013.5 hPa | 0 mm | - | 0 W/m² | - |
| 1777859406 | 10.56° C | 97% | 1013.2 hPa | 0 mm | - | 0 W/m² | - |
| 1777858506 | 10.56° C | 97% | 1013.2 hPa | 0 mm | - | 0 W/m² | - |
| 1777853704 | 10.56° C | 96% | 1013.2 hPa | 0 mm | - | 0 W/m² | - |
| 1777853104 | 10.56° C | 96% | 1013.2 hPa | 0 mm | - | 0 W/m² | - |
| 1777851605 | 10.56° C | 96% | 1013.2 hPa | 0 mm | - | 0 W/m² | - |
| 1777840504 | 13.33° C | 90% | 1011.9 hPa | 0 mm | - | 0 W/m² | - |
* Rain latest hour (hover to see other rain measurements)
** Current wind speed in m/s (hover to see current wind gust speed)